Tracking 29892 objects as of 21-Nov-2024
HD Live streaming from Space Station
objects crossing your sky now

FENGYUN 1C DEB

Track FENGYUN 1C DEB now!
10-day predictions


NORAD ID: 32362
Int'l Code: 1999-025CZF
Perigee: 828.1 km
Apogee: 1,244.6 km
Inclination: 99.8 °
Period: 105.7 minutes
Semi major axis: 7407 km
RCS: 0.0022 m2 (small)
Launch date: May 10, 1999
Source: People's Republic of China (PRC)
Launch site: Taiyaun Space Center, China (TSC)

Note: This is SATELLITE DEBRIS
Your satellite tracking list
Your tracking list is empty




NASA's NSSDC Master Catalog

Two Line Element Set (TLE):
1 32362U 99025CZF 24325.37512138  .00002705  00000-0  27507-2 0  9994
2 32362  99.8346 285.9452 0281100 186.3625 173.3915 13.61788411858500
Source of the keplerian elements: AFSPC